Date,TemperatureHighF,TemperatureAvgF,TemperatureLowF,DewpointHighF,DewpointAvgF,DewpointLowF,HumidityHigh,HumidityAvg,HumidityLow,PressureMaxIn,PressureMinIn,WindSpeedMaxMPH,WindSpeedAvgMPH,GustSpeedMaxMPH,PrecipitationSumIn
2013-1-1,33,26,15,17,12,7,69,57,49,0.00,40.00,7,5,11,0.00
2013-1-2,29,20,13,9,7,3,69,55,41,0.00,40.00,10,8,15,0.00
2013-1-3,33,27,22,9,6,5,49,42,34,0.00,40.00,13,11,20,0.00
2013-1-4,41,36,28,24,17,7,60,46,35,0.00,40.00,15,10,27,0.00
2013-1-5,42,31,21,22,17,14,83,58,37,0.00,40.00,11,7,23,0.00
2013-1-6,42,36,32,23,17,13,50,46,43,0.00,40.00,16,11,25,0.00
2013-1-7,43,38,34,26,21,18,54,49,44,0.00,40.00,27,11,41,0.00
2013-1-8,45,40,36,27,20,13,57,46,34,0.00,40.00,25,12,36,0.00
2013-1-9,50,48,45,27,24,21,48,39,32,0.00,40.00,14,9,27,0.00
2013-1-10,45,24,10,29,17,4,91,77,43,0.00,40.00,9,5,16,0.00
2013-1-11,11,7,-1,5,-1,-6,80,70,60,0.00,40.00,8,4,16,0.00
2013-1-12,15,7,0,7,-1,-6,80,69,62,0.00,40.00,9,6,14,0.00
2013-1-13,17,9,-2,4,0,-7,77,66,54,0.00,40.00,9,7,12,0.00
2013-1-14,24,16,8,12,3,-2,67,56,47,0.00,40.00,9,6,20,0.00
2013-1-15,39,31,24,21,17,11,59,55,48,0.00,40.00,11,7,21,0.00
2013-1-16,50,40,33,22,18,13,58,42,31,0.00,40.00,11,7,21,0.00
2013-1-17,49,43,33,21,17,14,58,36,28,0.00,40.00,12,7,22,0.00
2013-1-18,49,46,40,17,15,13,36,28,23,0.00,40.00,25,12,40,0.00
2013-1-19,45,39,33,27,18,11,69,44,28,0.00,40.00,13,7,16,0.00
2013-1-20,36,22,16,17,15,12,87,74,42,0.00,40.00,13,7,24,0.00
2013-1-21,53,33,17,17,13,9,86,53,20,0.00,40.00,11,7,19,0.00
2013-1-22,48,42,35,14,9,5,34,26,20,0.00,40.00,11,7,15,0.00
2013-1-23,49,28,22,28,17,14,77,65,33,0.00,40.00,15,8,23,0.00
2013-1-24,50,45,41,31,22,16,60,40,33,0.00,40.00,18,10,34,0.00
2013-1-25,51,45,41,30,26,22,60,47,42,0.00,40.00,13,9,25,0.00
2013-1-26,54,42,33,34,30,26,96,65,36,0.00,40.00,11,7,22,0.00
2013-1-27,39,34,28,32,19,13,93,57,35,0.00,40.00,13,6,22,0.00
2013-1-28,37,30,24,17,14,10,67,51,34,0.00,40.00,11,6,19,0.00
2013-1-29,31,15,4,21,6,-5,82,67,55,0.00,40.00,13,6,18,0.00
2013-1-30,40,28,16,26,19,5,84,69,54,0.00,40.00,16,8,22,0.00
2013-1-31,47,35,18,30,23,13,80,62,49,0.00,40.00,13,8,22,0.00